Ora Direzione Vento Velocita' Vento Media Vento Raffica Max. Temperatura Wind Chill Pioggia Pressione
20:44:49.0135 °(SE)3.3 Kts1.9 Kts23.0 Kts20.6 °C20.6 °C0.0 mm1018.6 Hpa
20:24:37.00 °(N)1.4 Kts0.6 Kts23.0 Kts22.0 °C22.0 °C0.0 mm1018.6 Hpa
20:04:20.0270 °(W)3.3 Kts2.7 Kts23.0 Kts22.7 °C22.7 °C0.0 mm1018.7 Hpa
19:44:05.0270 °(W)3.9 Kts3.3 Kts23.0 Kts23.0 °C23.0 °C0.0 mm1019.0 Hpa
19:23:40.0270 °(W)5.3 Kts4.7 Kts23.0 Kts23.1 °C23.1 °C0.0 mm1019.0 Hpa
19:04:26.0270 °(W)3.3 Kts2.7 Kts23.0 Kts23.8 °C23.8 °C0.0 mm1019.0 Hpa
18:44:07.0270 °(W)3.9 Kts3.3 Kts23.0 Kts23.5 °C23.5 °C0.0 mm1018.9 Hpa
18:23:42.0270 °(W)5.3 Kts4.7 Kts23.0 Kts23.3 °C23.3 °C0.0 mm1019.0 Hpa
18:04:33.0270 °(W)5.3 Kts4.7 Kts23.0 Kts23.3 °C23.3 °C0.0 mm1019.2 Hpa
17:44:09.0270 °(W)6.0 Kts5.3 Kts23.0 Kts23.5 °C23.5 °C0.0 mm1019.3 Hpa
17:23:50.0225 °(SW)6.6 Kts6.0 Kts23.0 Kts23.5 °C23.5 °C0.0 mm1019.3 Hpa
17:04:37.0180 °(S)9.3 Kts7.2 Kts23.0 Kts23.6 °C23.6 °C0.0 mm1019.6 Hpa
16:44:14.0225 °(SW)8.0 Kts6.0 Kts23.0 Kts23.3 °C23.3 °C0.0 mm1019.7 Hpa
16:23:53.0270 °(W)9.9 Kts8.6 Kts23.0 Kts23.4 °C23.4 °C0.0 mm1019.8 Hpa
16:04:41.0180 °(S)8.6 Kts7.2 Kts23.0 Kts23.3 °C23.3 °C0.0 mm1019.7 Hpa
15:44:25.0180 °(S)9.9 Kts8.6 Kts23.0 Kts23.2 °C23.2 °C0.0 mm1019.8 Hpa
15:24:09.0180 °(S)10.5 Kts9.3 Kts23.0 Kts23.4 °C23.4 °C0.0 mm1019.8 Hpa
15:03:49.0292 °(WNW)12.6 Kts9.3 Kts23.0 Kts23.3 °C23.3 °C0.0 mm1019.9 Hpa
14:43:49.0292 °(WNW)13.2 Kts10.5 Kts23.0 Kts23.5 °C23.5 °C0.0 mm1019.8 Hpa
14:23:51.0180 °(S)14.6 Kts11.3 Kts23.0 Kts23.5 °C23.5 °C0.0 mm1020.0 Hpa